Location: Invercargill
(46.4000°S, 168.3500°E)
Time: 12:26:03
(UTC+13:00)

Atlas Centaur 2 - Pass Details

Date: 24 January 2019
Orbit: 459 x 1311 km, 30.4° (Epoch: 16 February)

Event Time Altitude Azimuth Distance (km) Brightness Sun altitude
Rises 22:20:58 0° 306° (NW) 4,187 6.0 -8.1°
Reaches altitude 10° 22:24:26 10° 318° (NW) 3,287 5.3 -8.5°
Maximum altitude 22:30:52 25° 8° (N) 2,407 4.1 -9.4°
Enters shadow 22:36:40 12° 54° (NE) 3,139 4.5 -10.1°
